Regional Weather Roundup
Issued by NWS

Home | Current Version | Previous Version | Graphics & Text | Print | Product List | Glossary On
Versions: 1 2 3 4 5 6 7 8 9 10 11 12 13 14 15 16 17 18 19 20 21 22 23 24 25 26 27 28 29 30 31 32 33 34 35 36 37 38 39 40 41 42 43 44 45 46 47 48 49 50
000
ASUS43 KMPX 161301
RWRMN
WEATHER ROUNDUP FOR MINNESOTA
NATIONAL WEATHER SERVICE TWIN CITIES/CHANHASSEN MN
700 AM CST SAT DEC 16 2017


NOTE: "FAIR" INDICATES FEW OR NO CLOUDS BELOW 12,000 FEET WITH NO
SIGNIFICANT WEATHER AND/OR OBSTRUCTIONS TO VISIBILITY. N/A MEANS
CURRENT SKY AND/OR WEATHER CONDITIONS ARE NOT AVAILABLE.

MNZ060>063-068>070-161400-
   Twin Cities Metro

CITY           SKY/WX    TMP DP  RH WIND       PRES   REMARKS
TWIN CITIES    CLOUDY    26  24  92 NE7       29.75R WCI  18
ST PAUL        CLOUDY    24  22  91 CALM      29.77R
CRYSTAL        CLOUDY    23  19  85 NE3       29.75R
BLAINE         CLOUDY    25  25 100 E6        29.75R WCI  18
LAKEVILLE      CLOUDY    25  25 100 NE5       29.72R WCI  19
EDEN PRAIRIE   CLOUDY    28  25  88 NE7       29.72S WCI  21
SOUTH ST PAUL  CLOUDY    25  24  96 NE6       29.75R WCI  18
LAKE ELMO      CLOUDY    25  23  93 E9        29.77R WCI  15
$$
MNZ001>005-007-008-013>017-022>024-027-028-161400-
   Northwest Minnesota

CITY           SKY/WX    TMP DP  RH WIND       PRES   REMARKS
BEMIDJI        CLOUDY    15  12  87 E7        29.76R WCI   5
HALLOCK        CLOUDY    16  12  86 E8        29.77R WCI   5
ROSEAU         CLOUDY    10   5  79 E13       29.79F WCI  -5
WARROAD        FLURRIES   7   3  85 E12       29.82R WCI  -9
THIEF RVR FALL FLURRIES  16  12  86 E12       29.76R WCI   3
CROOKSTON      CLOUDY    21  18  86 E3        29.77R
FOSSTON        CLOUDY    18  16  93 SE7       29.73F WCI   8
DETROIT LAKES  CLOUDY    23  21  93 SE7       29.75R WCI  15
MOORHEAD       CLOUDY    25  21  86 CALM      29.75R
PARK RAPIDS    LGT SNOW  19  15  84 E7        29.73R FOG     WCI  10
MAHNOMEN       CLOUDY    22  18  87 SE5       29.73R WCI  15
$$
MNZ006-009>011-018-025>026-161400-
   North Central Minnesota

CITY           SKY/WX    TMP DP  RH WIND       PRES   REMARKS
BAUDETTE       CLOUDY     5   1  83 E8        29.82R WCI  -8
FLAG ISLAND    FLURRIES   1  -2  85 E3        29.84R
INTL FALLS     CLOUDY     0  -5  79 E9        29.86R WCI -15
WASKISH        CLOUDY    10   7  85 E8        29.79S WCI  -1
BIG FORK       FLURRIES  10   5  79 E3        29.80R
LONGVILLE      CLOUDY    18  14  86 E3        29.76S
GRAND RAPIDS   FLURRIES  14  12  92 SE5       29.80R WCI   6
CRANE LAKE     CLOUDY    -2  -6  84 CALM      29.89F
ORR            CLOUDY     3  -2  78 E3        29.80S
COOK           CLOUDY     5   1  85 E3        29.83R
WALKER         CLOUDY    16  13  86 E5        29.75S WCI   9
$$
MNZ012-019>021-037-161400-
   Northeast Minnesota

CITY           SKY/WX    TMP DP  RH WIND       PRES   REMARKS
DULUTH         CLOUDY    17  13  84 SE18      29.80R WCI   1
ELY            CLOUDY     1  -2  85 CALM      29.84R
HIBBING        CLOUDY    12   9  87 E6        29.80R WCI   3
EVELETH        CLOUDY    12   8  81 NE3       29.82R
DULUTH HARBOR  CLOUDY    19  12  73 E10       29.88R WCI   8
TWO HARBORS    FLURRIES  21  16  79 NE3       29.83R
SILVER BAY     CLOUDY    19  18  93 E8        29.83F WCI   9
GRAND MARAIS     N/A      9   3  77 NE9       29.95R WCI  -4
G MARAIS ARPRT CLOUDY     0  -8  71 NE7       29.85R WCI -13
$$
MNZ029>031-032-039>041-046>048-054>057-064-161400-
   West Central Minnesota

CITY           SKY/WX    TMP DP  RH WIND       PRES   REMARKS
FERGUS FALLS   MOCLDY    23  21  93 E6        29.76R WCI  16
WHEATON        CLOUDY    27  25  93 CALM      29.75R
MORRIS         CLOUDY    27  25  93 E6        29.72R FOG     WCI  20
ALEXANDRIA     CLOUDY    23  21  92 E12       29.73R FOG     WCI  12
ELBOW LAKE     CLOUDY    25  24  96 SE9       29.73R FOG     WCI  15
WADENA         CLOUDY    19  18  93 E8        29.73R WCI   9
GLENWOOD       CLOUDY    23  21  93 E9        29.73R FOG     WCI  13
APPLETON         N/A     30  28  93 CALM      29.73R
BENSON         CLOUDY    27  25  93 E7        29.74R WCI  19
ORTONVILLE     CLOUDY    32  28  86 NW3       29.73R
MADISON        CLOUDY    36  30  80 NW5       29.73R
WILLMAR        CLOUDY    27  27 100 E10       29.73R FOG     WCI  17
$$
MNZ033>034-036-042>043-049>051-058-059-161400-
   Central Minnesota

CITY           SKY/WX    TMP DP  RH WIND       PRES   REMARKS
ST CLOUD       CLOUDY    21  19  92 NE6       29.77R WCI  13
SAUK CENTRE    CLOUDY    22  20  93 E6        29.74R WCI  14
PAYNESVILLE    CLOUDY    23  23 100 E6        29.75R FOG     WCI  16
AITKIN         CLOUDY    18  10  73 E5        29.78R WCI  11
PINE RIVER     CLOUDY    16  12  86 SE7       29.80R WCI   6
BRAINERD       CLOUDY    20  14  77 E6        29.77R WCI  12
STAPLES        CLOUDY    19  16  86 E7        29.74R WCI  10
LITTLE FALLS   CLOUDY    21  18  86 E5        29.77R WCI  15
LITCHFIELD     CLOUDY    27  27 100 E6        29.75R FOG     WCI  20
BUFFALO        CLOUDY    24  22  93 NE9       29.76R WCI  14
MAPLE LAKE     CLOUDY    24  23  96 NE7       29.76R WCI  16
HUTCHINSON     CLOUDY    28  28  99 NE9       29.74R FOG     WCI  19
$$
MNZ037-044-045-052-053-161400-
   East Central Minnesota

CITY           SKY/WX    TMP DP  RH WIND       PRES   REMARKS
PRINCETON      CLOUDY    21  19  93 NE7       29.75R WCI  13
MORA           CLOUDY    19  16  86 NE6       29.80R WCI  11
CAMBRIDGE      CLOUDY    23  16  74 NE5       29.78R WCI  17
RUSH CITY      CLOUDY    21  17  84 NE6       29.79R WCI  13
MOOSE LAKE     CLOUDY    19  12  73 E3        29.80R
HINCKLEY       CLOUDY    21  16  79 NE5       29.80R WCI  15
CLOQUET        CLOUDY    16   9  73 E9        29.80S WCI   4
MCGREGOR       CLOUDY    19  14  79 E9        29.79R WCI   9
$$
MNZ071>073-080-081-089-090-097-098-161400-
   Southwest Minnesota

CITY           SKY/WX    TMP DP  RH WIND       PRES   REMARKS
MONTEVIDEO     CLOUDY    28  27  93 E3        29.73R
GRANITE FALLS  CLOUDY    29  27  94 CALM      29.73R
CANBY          CLOUDY    36  30  80 NW5       29.73R
MARSHALL       CLOUDY    31  26  82 W10       29.73R WCI  22
REDWOOD FALLS  CLOUDY    27  26  96 CALM      29.72R
OLIVIA         CLOUDY    30  28  93 NE3       29.72R
PIPESTONE      CLOUDY    28  25  86 N7        29.71R WCI  21
WINDOM           N/A     27  16  63 W7        29.70R WCI  19
WORTHINGTON    CLOUDY    31  25  78 NW6       29.71R WCI  25
JACKSON        CLOUDY    32  27  80 W7        29.70R WCI  26
SLAYTON        CLOUDY    29  26  85 W7        29.71R WCI  22
$$
MNZ065>067-074>077-082>085-091>093-161400-
   South Central Minnesota

CITY           SKY/WX    TMP DP  RH WIND       PRES   REMARKS
MANKATO        CLOUDY    27  25  92 SE5       29.70R WCI  22
NEW ULM        CLOUDY    27  25  93 CALM      29.70R
ST JAMES       CLOUDY    25  21  86 W7        29.71R WCI  17
FAIRMONT       CLOUDY    31  26  82 NW5       29.70R WCI  26
GLENCOE        CLOUDY    30  30 100 NE3       29.72R FOG
FARIBAULT      CLOUDY    21  21 100 CALM      29.71S
OWATONNA       CLOUDY    27  23  86 CALM      29.70R
WASECA         CLOUDY    23  21  93 SE5       29.72R WCI  17
ALBERT LEA     CLOUDY    27  21  80 CALM      29.70R
$$
MNZ078>079-086>088-094>096-161400-
   Southeast Minnesota

CITY           SKY/WX    TMP DP  RH WIND       PRES   REMARKS
ROCHESTER      CLOUDY    24  22  91 CALM      29.72R
RED WING       CLOUDY    27  23  86 E7        29.75R WCI  19
STANTON        CLOUDY    28  26  91 NE3       29.73R
DODGE CENTER   CLOUDY    25  21  86 S3        29.71R
WINONA         CLOUDY    28  27  93 CALM      29.77R
AUSTIN         CLOUDY    23  19  86 CALM      29.72R
PRESTON        CLOUDY    27  23  84 CALM      29.72R
$$
ABBREVIATIONS USED IN REMARKS
   TC - TEMPERATURES IN CELSIUS
  WCI - WIND CHILL INDEX
   HX - HEAT INDEX
  VSB - VISIBILITY
$$



USA.gov is the U.S. government's official web portal to all federal, state and local government web resources and services.